Location: Bonningues
(50.7927°N, 2.0150°E)
Time: 05:38:22
(UTC+00:00)

Okean 1-7 - Pass Details

Date: 08 August 2020
Orbit: 590 x 619 km, 82.5° (Epoch: 19 September)

Event Time Altitude Azimuth Distance (km) Brightness Sun altitude
Rises 22:37:45 0° 341° (NNW) 2,884 8.1 -21.2°
Reaches altitude 10° 22:40:10 10° 331° (NNW) 1,969 6.8 -21.3°
Maximum altitude 22:43:58 30° 271° (W) 1,094 4.5 -21.5°
Enters shadow 22:45:24 24° 236° (SW) 1,253 4.5 -21.6°
